Terug naar catalogus

STARLINK-35562

ActiefCommunicatieVLEO
NORAD 66063·PAYLOAD·🇺🇸 United States

Gelanceerd Oct 19, 2025 vanaf Cape Canaveral Space Force Station

Loading…

Volgende Passages (komende 24 uur)

TLE

VersSource: CelesTrak SupGP

Epoch: Sep 14, 2026, 22:40 UTC

1 66063C 25235F   26257.94493056  .00030448  00000+0  89979-3 0  2570
2 66063  53.1589  85.6018 0001186  81.7620 354.5267 15.34368697    17

Volg STARLINK-35562 in realtime met AllMySat

Download on the App Store